TimeEDT,TemperatureF,Dew PointF,Humidity,Sea Level PressureIn,VisibilityMPH,Wind Direction,Wind SpeedMPH,Gust SpeedMPH,PrecipitationIn,Events,Conditions,WindDirDegrees,DateUTC
12:53 AM,73.9,70.0,87,30.18,7.0,NNE,3.5,-,N/A,,Clear,20,2012-10-05 04:53:00
1:41 AM,73.4,69.8,88,30.15,7.0,Calm,Calm,-,N/A,,Mostly Cloudy,0,2012-10-05 05:41:00
1:53 AM,73.9,70.0,87,30.16,7.0,NE,3.5,-,N/A,,Mostly Cloudy,40,2012-10-05 05:53:00
2:03 AM,73.4,69.8,88,30.15,8.0,Calm,Calm,-,N/A,,Scattered Clouds,0,2012-10-05 06:03:00
2:33 AM,73.4,68.0,83,30.16,6.0,Calm,Calm,-,N/A,,Haze,0,2012-10-05 06:33:00
2:41 AM,73.4,69.8,88,30.16,6.0,Calm,Calm,-,N/A,,Mostly Cloudy,0,2012-10-05 06:41:00
2:53 AM,73.0,70.0,90,30.18,6.0,Calm,Calm,-,N/A,,Overcast,0,2012-10-05 06:53:00
3:22 AM,73.4,69.8,88,30.15,5.0,Calm,Calm,-,N/A,,Scattered Clouds,0,2012-10-05 07:22:00
4:25 AM,73.4,69.8,88,30.13,6.0,Calm,Calm,-,N/A,,Mostly Cloudy,0,2012-10-05 08:25:00
4:53 AM,73.0,69.1,87,30.15,6.0,Calm,Calm,-,N/A,,Mostly Cloudy,0,2012-10-05 08:53:00
5:48 AM,73.4,69.8,88,30.13,6.0,NNE,3.5,-,N/A,,Overcast,20,2012-10-05 09:48:00
5:53 AM,73.9,70.0,87,30.15,6.0,NNE,3.5,-,N/A,,Overcast,20,2012-10-05 09:53:00
6:18 AM,73.4,69.8,88,30.13,6.0,Calm,Calm,-,N/A,,Overcast,0,2012-10-05 10:18:00
6:53 AM,73.9,70.0,87,30.16,6.0,NNE,3.5,-,N/A,,Overcast,30,2012-10-05 10:53:00
7:53 AM,73.9,70.0,87,30.15,5.0,Calm,Calm,-,N/A,,Overcast,0,2012-10-05 11:53:00
8:02 AM,73.4,69.8,88,30.13,5.0,NNE,4.6,-,N/A,,Overcast,20,2012-10-05 12:02:00
8:53 AM,75.0,71.1,87,30.15,3.0,Calm,Calm,-,N/A,,Overcast,0,2012-10-05 12:53:00
9:37 AM,77.0,71.6,83,30.15,6.0,Calm,Calm,-,N/A,,Haze,0,2012-10-05 13:37:00
9:53 AM,78.1,72.0,81,30.16,7.0,Calm,Calm,-,N/A,,Mostly Cloudy,0,2012-10-05 13:53:00
10:11 AM,78.8,73.4,83,30.14,8.0,Calm,Calm,-,N/A,,Mostly Cloudy,0,2012-10-05 14:11:00
10:53 AM,82.0,73.9,76,30.16,10.0,Variable,4.6,-,N/A,,Mostly Cloudy,0,2012-10-05 14:53:00
11:53 AM,82.9,72.0,69,30.15,10.0,North,4.6,-,N/A,,Mostly Cloudy,360,2012-10-05 15:53:00
12:53 PM,84.9,72.0,65,30.13,10.0,Variable,5.8,-,N/A,,Mostly Cloudy,0,2012-10-05 16:53:00
1:53 PM,84.9,72.0,65,30.11,10.0,Calm,Calm,-,0.00,,Mostly Cloudy,0,2012-10-05 17:53:00
1:59 PM,84.2,71.6,66,30.09,10.0,Calm,Calm,-,N/A,Thunderstorm,Thunderstorm,0,2012-10-05 17:59:00
2:36 PM,78.8,73.4,83,30.07,3.0,Variable,3.5,-,0.08,Rain-Thunderstorm,Thunderstorms and Rain,0,2012-10-05 18:36:00
2:39 PM,78.8,73.4,83,30.07,2.0,Variable,4.6,-,0.10,Rain,Heavy Rain,0,2012-10-05 18:39:00
2:53 PM,79.0,73.9,84,30.08,2.0,Calm,Calm,-,0.21,Rain,Light Rain,0,2012-10-05 18:53:00
3:01 PM,80.6,75.2,84,30.06,7.0,Calm,Calm,-,0.00,Rain,Light Rain,0,2012-10-05 19:01:00
3:53 PM,84.0,73.9,72,30.05,10.0,Calm,Calm,-,0.00,,Mostly Cloudy,0,2012-10-05 19:53:00
4:53 PM,84.0,72.0,67,30.03,10.0,NNE,5.8,-,N/A,,Mostly Cloudy,20,2012-10-05 20:53:00
5:53 PM,82.9,73.0,72,30.04,10.0,NE,3.5,-,N/A,,Mostly Cloudy,50,2012-10-05 21:53:00
6:53 PM,81.0,73.0,77,30.04,10.0,Calm,Calm,-,N/A,,Mostly Cloudy,0,2012-10-05 22:53:00
9:53 PM,75.9,70.0,82,30.06,10.0,Calm,Calm,-,N/A,,Clear,0,2012-10-06 01:53:00
10:53 PM,73.9,69.1,85,30.06,7.0,Calm,Calm,-,N/A,,Clear,0,2012-10-06 02:53:00
11:53 PM,73.0,69.1,87,30.06,7.0,Calm,Calm,-,N/A,,Clear,0,2012-10-06 03:53:00